Location: Newark
(49.8969°N, 3.3422°E)
Time: 01:00:09
(UTC+00:00)

A-11 Canister half - Pass Details

Date: 23 January 2020
Orbit: 1517 x 1683 km, 47.2° (Epoch: 20 February)

Event Time Altitude Azimuth Distance (km) Brightness Sun altitude
Exits shadow 01:49:40 21° 88° (E) 2,907 10.6 -52.5°
Drops below altitude 10° 01:52:10 10° 85° (E) 3,687 11.3 -52.2°
Sets 01:55:13 0° 83° (E) 4,678 12.0 -51.8°
